{"data":{"norad_id":52634,"intl_designator":"2022-052AN","name":"STARLINK-3974","alt_names":[],"object_type":"PAYLOAD","status":"ACTIVE","operator":null,"country":"US","launch_date":"2022-05-14","launch_site_code":"AFETR","launch_vehicle":null,"mission":null,"orbit_class":"UNKNOWN","rcs_meters":null,"size_class":null,"mass_kg":null,"dimensions":null,"purposes":["comms"],"wikipedia_slug":null,"has_3d_model":false,"image_url":null,"decayed_at":null,"tle_current":{"epoch":"2026-05-25T02:04:53.934240Z","epoch_age_seconds":67659,"freshness":"FRESH","line1":"1 52634U 22052AN  26145.08673535  .00000655  00000+0  59240-4 0  9995","line2":"2 52634  53.2142 286.1883 0001263  90.1346 269.9791 15.08834548222522","mean_motion":15.08834548,"eccentricity":0.0001263,"inclination_deg":53.2142,"raan_deg":286.1883,"arg_perigee_deg":90.1346,"mean_anomaly_deg":269.9791,"bstar":5.924e-5,"rev_number":22252,"period_min":95.437899530386,"perigee_km":538.88632319931,"apogee_km":540.63378399505,"semimajor_km":6917.8970535972,"source":"CELESTRAK","updated_at":"2026-05-25T13:38:17.204682Z"}}}